User: anonymous   Login
Location: Asheville, NC
(35.6000°N, 82.5500°W)
Time: 02:45:38
(UTC-04:00)
Language:

EO-79 - Orbit

View from above orbital plane
View from above orbital plane
View from above satellite
View from above satellite

Ground track
Ground track

The orbit data is extracted from the following two-line orbital elements,

1 40025U 14033R   18198.72918926  .00000221  00000-0  29614-4 0  9994
2 40025  97.9038 114.0646 0013975  85.0241 275.2570 14.88738333221333
Epoch (UTC): 17 July 2018 17:30:01
Eccentricity: 0.0013975
inclination: 97.9038°
perigee height: 592 km
apogee height: 611 km
right ascension of ascending node: 114.0646°
argument of perigee: 85.0241°
revolutions per day: 14.88738333
mean anomaly at epoch: 275.2570°
orbit number at epoch: 22133

The dashed part of the orbit path shows where the satellite is in the earth's shadow,  

DLR